Cairo, Egypt

9:17 AM EET on April 20, 2018 (GMT +0200)
Cairo International Airport

Weather History for HECA - September, 2012

Change the Weather History Date:

Thursday, September 6, 2012

  Actual Average Record
Temperature  
Mean Temperature 83 °F -  
Max Temperature 93 °F 88 °F 104 °F (1996)
Min Temperature 73 °F 69 °F 71 °F (1999)
Cooling Degree Days 18    
Growing Degree Days 33 (Base 50)    
Moisture  
Dew Point 65 °F    
Average Humidity 57    
Maximum Humidity 83    
Minimum Humidity 24    
Precipitation  
Precipitation 0.00 in 0.00 in - ()
Sea Level Pressure  
Sea Level Pressure 29.85 in    
Wind  
Wind Speed 9 mph ()    
Max Wind Speed 17 mph    
Max Gust Speed -    
Visibility 3.9 miles    
Events      
Averages and records for this station are not official NWS values.
T = Trace of Precipitation, MM = Missing Value Source: Averaged Metar Reports

Daily Weather History Graph

Daily Weather History Graph

Search for Another Location

Airport or City:

Astronomy

Sep. 06, 2012 Rise Set
Actual Time 5:34 AM EET 6:10 PM EET
Civil Twilight 5:09 AM EET 6:34 PM EET
Nautical Twilight 4:41 AM EET 7:03 PM EET
Astronomical Twilight 4:12 AM EET 7:32 PM EET
Moon 9:36 PM EET (9/6) 10:46 AM EET (9/6)
Length of Visible Light 13h 24m
Length of Day
12h 36m
Waning Gibbous, 70% of the Moon is Illuminated
Sep 6
Waning Gibbous
Sep 8
Last Quarter
Sep 16
New
Sep 22
First Quarter
Sep 30
Full

Hourly Weather History & Observations

Time (EET) Temp. Heat Index Dew Point Humidity Pressure Visibility Wind Dir Wind Speed Gust Speed Precip Events Conditions
12:00 AM 77.0 °F - 68.0 °F 74% 29.86 in - North 8.1 mph - N/A   Clear
12:30 AM 77.0 °F - 68.0 °F 74% 29.86 in - North 6.9 mph - N/A   Clear
1:00 AM 75.2 °F - 68.0 °F 78% 29.86 in 3.7 mi NNW 8.1 mph - N/A   Unknown
1:30 AM 75.2 °F - 68.0 °F 78% 29.86 in 2.5 mi NNW 8.1 mph - N/A   Mist
2:00 AM 75 °F - 69 °F 75% 29.86 in 2 mi NNW 6.9 mph - -   Mist
2:00 AM 75.2 °F - 68.0 °F 78% 29.86 in 2.5 mi NNW 6.9 mph - N/A   Mist
2:30 AM 75.2 °F - 68.0 °F 78% 29.86 in 2.5 mi NNW 8.1 mph - N/A   Mist
3:00 AM 75.2 °F - 68.0 °F 78% 29.86 in 2.5 mi NNW 6.9 mph - N/A   Mist
3:30 AM 75.2 °F - 68.0 °F 78% 29.83 in 2.5 mi North 8.1 mph - N/A   Mist
4:00 AM 73.4 °F - 68.0 °F 83% 29.83 in 2.5 mi North 8.1 mph - N/A   Mist
4:30 AM 73.4 °F - 68.0 °F 83% 29.83 in 2.5 mi North 8.1 mph - N/A   Mist
5:00 AM 75.2 °F - 68.0 °F 78% 29.86 in 2.5 mi North 6.9 mph - N/A   Mist
5:30 AM 73.4 °F - 68.0 °F 83% 29.86 in 2.5 mi NNE 4.6 mph - N/A   Mist
6:00 AM 73.4 °F - 68.0 °F 83% 29.86 in 1.2 mi NNE 5.8 mph - N/A   Mist
6:30 AM 73.4 °F - 68.0 °F 83% 29.89 in 1.2 mi NNE 5.8 mph - N/A   Mist
7:00 AM 75.2 °F - 68.0 °F 78% 29.89 in 1.2 mi North 6.9 mph - N/A   Mist
7:30 AM 75.2 °F - 66.2 °F 73% 29.89 in 1.2 mi North 8.1 mph - N/A   Mist
8:00 AM 76 °F - 67 °F 66% 29.88 in 2 mi NNE 9.2 mph - -   Mist
8:00 AM 77.0 °F - 66.2 °F 69% 29.89 in 2.5 mi NNE 9.2 mph - N/A   Mist
8:30 AM 78.8 °F - 68.0 °F 69% 29.89 in 2.5 mi NNW 8.1 mph - N/A   Scattered Clouds
9:00 AM 78.8 °F - 68.0 °F 69% 29.89 in 3.7 mi North 6.9 mph - N/A   Scattered Clouds
9:30 AM 80.6 °F 83.2 °F 68.0 °F 65% 29.89 in 3.7 mi North 8.1 mph - N/A   Scattered Clouds
10:00 AM 82.4 °F 84.6 °F 66.2 °F 58% 29.89 in 6.2 mi NNW 8.1 mph - N/A   Scattered Clouds
10:30 AM 82.4 °F 84.6 °F 66.2 °F 58% 29.89 in 6.2 mi NNW 8.1 mph - N/A   Scattered Clouds
11:00 AM 86.0 °F 88.2 °F 66.2 °F 51% 29.86 in 6.2 mi NNW 8.1 mph - N/A   Scattered Clouds
11:30 AM 86.0 °F 88.2 °F 66.2 °F 51% 29.86 in 6.2 mi NNW 8.1 mph - N/A   Scattered Clouds
12:00 PM 87.8 °F 88.5 °F 62.6 °F 43% 29.83 in 6.2 mi NNW 10.4 mph - N/A   Scattered Clouds
12:30 PM 89.6 °F 89.5 °F 60.8 °F 38% 29.83 in 6.2 mi NNW 10.4 mph - N/A   Scattered Clouds
1:00 PM 91.4 °F 90.7 °F 59.0 °F 34% 29.83 in 6.2 mi NNW 11.5 mph - N/A   Scattered Clouds
1:20 PM 93.2 °F 96.2 °F 66.2 °F 41% 29.83 in 6.2 mi North 11.5 mph - N/A   Scattered Clouds
1:30 PM 91.4 °F 90.7 °F 59.0 °F 34% 29.83 in 6.2 mi NNW 13.8 mph - N/A   Scattered Clouds
2:00 PM 93 °F - 66 °F 31% 29.82 in 6 mi North 11.5 mph - -   Partly Cloudy
2:00 PM 93.2 °F 90.8 °F 53.6 °F 26% 29.80 in 6.2 mi NNW 13.8 mph - N/A   Scattered Clouds
2:30 PM 93.2 °F 90.8 °F 53.6 °F 26% 29.80 in 6.2 mi NNW 13.8 mph - N/A   Scattered Clouds
3:00 PM 93.2 °F 90.8 °F 53.6 °F 26% 29.80 in 6.2 mi NNW 13.8 mph - N/A   Scattered Clouds
3:30 PM 93.2 °F - 51.8 °F 24% 29.80 in - NNW 15.0 mph - N/A   Clear
4:00 PM 93.2 °F 93.3 °F 60.8 °F 34% 29.80 in - NNW 13.8 mph - N/A   Clear
4:30 PM 93.2 °F 93.3 °F 60.8 °F 34% 29.80 in - NNW 13.8 mph - N/A   Clear
5:00 PM 91.4 °F 92.1 °F 62.6 °F 38% 29.83 in - NNW 13.8 mph - N/A   Clear
5:30 PM 91.4 °F 92.1 °F 62.6 °F 38% 29.83 in - NNW 13.8 mph - N/A   Clear
6:00 PM 89.6 °F 92.2 °F 66.2 °F 46% 29.83 in - NNW 17.3 mph - N/A   Clear
6:30 PM 89.6 °F 92.2 °F 66.2 °F 46% 29.83 in - NNW 17.3 mph - N/A   Clear
7:00 PM 87.8 °F 89.4 °F 64.4 °F 46% 29.83 in - NNW 15.0 mph - N/A   Clear
7:30 PM 87.8 °F 89.4 °F 64.4 °F 46% 29.83 in - NNW 15.0 mph - N/A   Clear
8:00 PM 85 °F - 59 °F 31% 29.86 in 6 mi NNW 15.0 mph - -  
8:00 PM 84.2 °F 83.8 °F 59.0 °F 42% 29.89 in - NNW 15.0 mph - N/A   Clear
8:30 PM 84.2 °F 83.8 °F 59.0 °F 42% 29.89 in - NNW 15.0 mph - N/A   Clear
9:00 PM 82.4 °F 83.9 °F 64.4 °F 54% 29.89 in - NNW 13.8 mph - N/A   Clear
9:30 PM 82.4 °F 83.9 °F 64.4 °F 54% 29.89 in - NNW 13.8 mph - N/A   Clear
10:00 PM 78.8 °F - 66.2 °F 65% 29.89 in - NNW 13.8 mph - N/A   Clear
10:30 PM 78.8 °F - 66.2 °F 65% 29.89 in - NNW 13.8 mph - N/A   Clear
11:00 PM 78.8 °F - 68.0 °F 69% 29.89 in - NNW 11.5 mph - N/A   Clear
11:30 PM 78.8 °F - 68.0 °F 69% 29.89 in - NNW 11.5 mph - N/A   Clear